WV5G-13 Weather Reports


Display with metric or nautical units.
time (UTC)temp
F
wind
direction
speed
MPH
gust
MPH
rain 1hr
in
rain 24hr
in
rain mn
in
humidity
%
barometer
mb
20260901224334 93 213 7.0 19.0 0.00 0.00 0.00 26 1013.8
20260901223831 94 174 8.0 14.0 0.00 0.00 0.00 25 1014.0
20260901223326 95 191 11.0 15.0 0.00 0.00 0.00 24 1013.8
20260901222821 94 141 8.0 12.0 0.00 0.00 0.00 26 1014.0
20260901222318 94 166 7.0 15.0 0.00 0.00 0.00 25 1014.1
20260901221813 95 189 6.0 13.0 0.00 0.00 0.00 25 1014.3
20260901221308 94 226 15.0 17.0 0.00 0.00 0.00 26 1013.9
20260901220808 94 197 9.0 11.0 0.00 0.00 0.00 26 1014.0
20260901220302 93 176 9.0 17.0 0.00 0.00 0.00 26 1014.2
20260901215801 93 215 6.0 13.0 0.00 0.00 0.00 28 1014.1
20260901215300 93 197 11.0 15.0 0.00 0.00 0.00 26 1014.1
20260901214759 94 180 7.0 18.0 0.00 0.00 0.00 27 1014.3
20260901214258 93 164 9.0 13.0 0.00 0.00 0.00 27 1014.3
20260901213753 92 168 4.0 11.0 0.00 0.00 0.00 29 1014.6
20260901213252 91 199 5.0 12.0 0.00 0.00 0.00 28 1014.7
20260901212746 92 156 7.0 13.0 0.00 0.00 0.00 29 1014.9
20260901212243 93 186 7.0 13.0 0.00 0.00 0.00 28 1014.7
20260901211737 93 206 11.0 14.0 0.00 0.00 0.00 27 1014.8
20260901211234 91 204 7.0 16.0 0.00 0.00 0.00 29 1015.1
20260901210729 93 205 10.0 16.0 0.00 0.00 0.00 28 1015.0
20260901210224 94 185 6.0 11.0 0.00 0.00 0.00 27 1015.0
20260901205720 93 144 9.0 11.0 0.00 0.00 0.00 28 1015.1
20260901205215 94 179 5.0 9.0 0.00 0.00 0.00 27 1015.1
20260901204710 94 201 6.0 12.0 0.00 0.00 0.00 28 1015.4
20260901204206 93 220 9.0 13.0 0.00 0.00 0.00 28 1015.2
20260901203701 92 195 7.0 11.0 0.00 0.00 0.00 30 1015.6
20260901203156 91 203 8.0 15.0 0.00 0.00 0.00 30 1015.4
20260901202655 92 190 8.0 12.0 0.00 0.00 0.00 28 1015.8
20260901202151 92 210 13.0 13.0 0.00 0.00 0.00 29 1015.8
20260901201647 91 203 7.0 14.0 0.00 0.00 0.00 29 1015.9
20260901201145 91 164 7.0 12.0 0.00 0.00 0.00 29 1016.0
20260901200640 93 175 11.0 16.0 0.00 0.00 0.00 28 1015.9
20260901200135 91 165 9.0 15.0 0.00 0.00 0.00 29 1015.9
20260901195632 92 184 7.0 11.0 0.00 0.00 0.00 29 1016.1
20260901195133 92 142 6.0 10.0 0.00 0.00 0.00 29 1016.0
20260901194628 91 166 3.0 16.0 0.00 0.00 0.00 31 1016.1
20260901194123 92 143 9.0 12.0 0.00 0.00 0.00 30 1016.4
20260901193619 92 144 12.0 15.0 0.00 0.00 0.00 30 1016.1
20260901193113 91 186 7.0 14.0 0.00 0.00 0.00 30 1016.4
20260901192608 91 200 7.0 11.0 0.00 0.00 0.00 30 1016.6
20260901192103 93 168 12.0 17.0 0.00 0.00 0.00 29 1016.6
20260901191559 91 150 11.0 15.0 0.00 0.00 0.00 30 1016.7
20260901191055 92 157 5.0 16.0 0.00 0.00 0.00 30 1016.6
20260901190550 91 150 4.0 12.0 0.00 0.00 0.00 30 1016.4
20260901190049 92 171 7.0 14.0 0.00 0.00 0.00 29 1016.9
20260901185543 91 148 9.0 13.0 0.00 0.00 0.00 31 1016.7
20260901185042 92 142 6.0 11.0 0.00 0.00 0.00 29 1016.9
20260901184537 91 172 8.0 14.0 0.00 0.00 0.00 30 1016.8
20260901184032 91 203 4.0 10.0 0.00 0.00 0.00 31 1017.0
20260901183527 91 183 9.0 13.0 0.00 0.00 0.00 30 1017.1
20260901183022 91 180 7.0 11.0 0.00 0.00 0.00 31 1017.0
20260901182519 89 210 5.0 13.0 0.00 0.00 0.00 31 1017.2
20260901182018 91 207 9.0 16.0 0.00 0.00 0.00 30 1017.2
20260901181518 91 208 6.0 17.0 0.00 0.00 0.00 31 1017.4
20260901181017 90 231 8.0 12.0 0.00 0.00 0.00 31 1017.4
20260901180516 91 201 5.0 17.0 0.00 0.00 0.00 32 1017.5
20260901180011 90 155 7.0 14.0 0.00 0.00 0.00 32 1017.2
20260901175504 88 203 6.0 15.0 0.00 0.00 0.00 34 1017.2
20260901174959 88 190 7.0 15.0 0.00 0.00 0.00 34 1017.5
20260901174455 88 219 9.0 13.0 0.00 0.00 0.00 34 1017.4
20260901173951 90 203 5.0 9.0 0.00 0.00 0.00 33 1017.7
20260901173445 90 193 4.0 10.0 0.00 0.00 0.00 33 1017.9
20260901172941 90 206 7.0 9.0 0.00 0.00 0.00 34 1017.6
20260901172436 90 165 7.0 13.0 0.00 0.00 0.00 32 1017.8
20260901171929 89 116 5.0 7.0 0.00 0.00 0.00 33 1017.7
20260901171428 89 190 5.0 8.0 0.00 0.00 0.00 36 1017.9
20260901170927 87 214 10.0 13.0 0.00 0.00 0.00 36 1017.9
20260901170422 88 206 12.0 17.0 0.00 0.00 0.00 35 1017.7
20260901165921 88 195 8.0 15.0 0.00 0.00 0.00 36 1017.7
20260901165416 87 226 9.0 15.0 0.00 0.00 0.00 39 1017.9
20260901164913 88 229 9.0 13.0 0.00 0.00 0.00 39 1017.8
20260901164413 87 228 8.0 11.0 0.00 0.00 0.00 40 1017.7
20260901163907 86 189 4.0 9.0 0.00 0.00 0.00 41 1017.8
20260901163402 87 232 8.0 16.0 0.00 0.00 0.00 39 1017.7
20260901162857 87 210 11.0 14.0 0.00 0.00 0.00 40 1017.7
20260901162356 87 210 15.0 18.0 0.00 0.00 0.00 40 1017.8
20260901161855 86 220 6.0 13.0 0.00 0.00 0.00 43 1017.7
20260901161350 87 225 11.0 18.0 0.00 0.00 0.00 41 1017.8
20260901160845 86 219 8.0 12.0 0.00 0.00 0.00 42 1017.9
20260901160342 86 213 9.0 16.0 0.00 0.00 0.00 43 1017.7
20260901155840 86 213 8.0 13.0 0.00 0.00 0.00 44 1017.8
20260901155335 86 197 12.0 16.0 0.00 0.00 0.00 43 1017.7
20260901154832 85 201 11.0 14.0 0.00 0.00 0.00 44 1017.6
20260901154330 85 210 7.0 14.0 0.00 0.00 0.00 45 1017.6
20260901153825 85 225 12.0 17.0 0.00 0.00 0.00 45 1017.7
20260901153320 84 228 13.0 17.0 0.00 0.00 0.00 46 1017.5
20260901152819 84 196 12.0 17.0 0.00 0.00 0.00 46 1018.0
20260901152318 84 214 10.0 18.0 0.00 0.00 0.00 46 1017.7
20260901151814 83 223 9.0 19.0 0.00 0.00 0.00 47 1017.9
20260901151308 83 222 9.0 19.0 0.00 0.00 0.00 47 1017.6
20260901150802 83 220 8.0 12.0 0.00 0.00 0.00 47 1017.6
20260901150300 82 224 9.0 16.0 0.00 0.00 0.00 47 1018.1
20260901145757 82 229 9.0 14.0 0.00 0.00 0.00 48 1017.6
20260901145252 81 219 9.0 13.0 0.00 0.00 0.00 48 1017.8
20260901144747 81 225 10.0 15.0 0.00 0.00 0.00 48 1017.9
20260901144243 81 225 11.0 15.0 0.00 0.00 0.00 49 1018.0
20260901143738 81 209 14.0 17.0 0.00 0.00 0.00 48 1018.0
20260901143234 81 213 6.0 12.0 0.00 0.00 0.00 49 1018.0
20260901142731 81 216 8.0 13.0 0.00 0.00 0.00 49 1018.1
20260901142229 80 223 5.0 9.0 0.00 0.00 0.00 50 1017.9
20260901141724 80 219 6.0 9.0 0.00 0.00 0.00 50 1018.1
20260901141219 80 219 5.0 13.0 0.00 0.00 0.00 50 1018.0
20260901140718 79 230 9.0 13.0 0.00 0.00 0.00 50 1018.0
20260901140217 79 227 7.0 12.0 0.00 0.00 0.00 51 1017.8
20260901135712 78 223 8.0 13.0 0.00 0.00 0.00 51 1017.9
20260901135212 78 225 6.0 9.0 0.00 0.00 0.00 52 1017.9
20260901134708 77 242 3.0 11.0 0.00 0.00 0.00 53 1018.1
20260901134202 77 203 5.0 9.0 0.00 0.00 0.00 52 1018.1
20260901133702 77 231 7.0 9.0 0.00 0.00 0.00 53 1018.2
20260901133200 76 213 4.0 10.0 0.00 0.00 0.00 53 1018.2
20260901132655 75 227 3.0 6.0 0.00 0.00 0.00 54 1017.9
20260901132150 76 232 4.0 9.0 0.00 0.00 0.00 53 1017.9
20260901131649 75 214 3.0 6.0 0.00 0.00 0.00 53 1018.0
20260901131143 75 199 3.0 6.0 0.00 0.00 0.00 53 1018.0
20260901130639 75 181 3.0 6.0 0.00 0.00 0.00 54 1018.0
20260901130137 74 177 3.0 7.0 0.00 0.00 0.00 54 1017.9
20260901125636 75 193 4.0 9.0 0.00 0.00 0.00 54 1017.8
20260901125131 74 204 6.0 10.0 0.00 0.00 0.00 54 1017.6
20260901124626 74 216 7.0 8.0 0.00 0.00 0.00 54 1017.7
20260901124125 74 199 6.0 10.0 0.00 0.00 0.00 54 1017.7
20260901123625 74 191 7.0 9.0 0.00 0.00 0.00 54 1017.6
20260901123120 74 213 7.0 12.0 0.00 0.00 0.00 53 1017.6
20260901122618 74 226 9.0 10.0 0.00 0.00 0.00 53 1017.2
20260901122113 74 229 7.0 10.0 0.00 0.00 0.00 53 1017.5
20260901121607 74 214 5.0 9.0 0.00 0.00 0.00 53 1017.2
20260901121102 74 222 3.0 8.0 0.00 0.00 0.00 53 1017.2
20260901120556 74 214 5.0 6.0 0.00 0.00 0.00 54 1017.1
20260901120052 74 233 4.0 5.0 0.00 0.00 0.00 54 1017.1
20260901115547 74 212 2.0 5.0 0.00 0.00 0.00 53 1017.2
20260901115044 74 220 3.0 5.0 0.00 0.00 0.00 52 1017.4
20260901114540 74 212 6.0 7.0 0.00 0.00 0.00 52 1017.2
20260901114039 74 183 2.0 5.0 0.00 0.00 0.00 52 1017.5
20260901113538 74 162 4.0 5.0 0.00 0.00 0.00 52 1017.2
20260901113033 74 210 3.0 6.0 0.00 0.00 0.00 52 1017.4
20260901112533 74 186 3.0 5.0 0.00 0.00 0.00 51 1017.2
20260901112028 74 238 0.0 8.0 0.00 0.00 0.00 51 1017.0
20260901111527 74 188 4.0 6.0 0.00 0.00 0.00 51 1017.4
20260901111025 74 184 5.0 10.0 0.00 0.00 0.00 50 1017.1
20260901110522 75 200 4.0 6.0 0.00 0.00 0.00 51 1017.1
20260901110017 75 202 5.0 7.0 0.00 0.00 0.00 50 1017.0
20260901105514 75 169 8.0 9.0 0.00 0.00 0.00 50 1016.9
20260901105012 75 169 7.0 10.0 0.00 0.00 0.00 50 1017.0
20260901104509 75 177 6.0 9.0 0.00 0.00 0.00 49 1017.0
20260901104004 75 178 6.0 10.0 0.00 0.00 0.00 49 1016.9
20260901103458 75 156 6.0 11.0 0.00 0.00 0.00 49 1016.9
20260901102954 75 170 6.0 10.0 0.00 0.00 0.00 49 1016.8
20260901102454 75 164 5.0 9.0 0.00 0.00 0.00 49 1016.8
20260901101948 75 180 3.0 8.0 0.00 0.00 0.00 49 1017.0
20260901101443 75 171 5.0 11.0 0.00 0.00 0.00 48 1017.0
20260901100938 75 175 7.0 8.0 0.00 0.00 0.00 48 1016.7
20260901100432 75 179 8.0 10.0 0.00 0.00 0.00 48 1016.8
20260901095931 76 176 5.0 10.0 0.00 0.00 0.00 47 1016.8
20260901095430 76 167 5.0 10.0 0.00 0.00 0.00 47 1016.8
20260901094923 76 98 2.0 8.0 0.00 0.00 0.00 46 1016.8
20260901094418 77 193 6.0 11.0 0.00 0.00 0.00 46 1017.0
20260901093917 77 195 6.0 11.0 0.00 0.00 0.00 45 1016.9
20260901093412 78 190 6.0 11.0 0.00 0.00 0.00 45 1016.8
20260901092907 78 208 5.0 14.0 0.00 0.00 0.00 45 1016.9
20260901092403 78 140 10.0 14.0 0.00 0.00 0.00 44 1016.5
20260901091859 78 186 11.0 15.0 0.00 0.00 0.00 43 1016.9
20260901091358 78 151 9.0 15.0 0.00 0.00 0.00 44 1016.8
20260901090853 78 148 9.0 14.0 0.00 0.00 0.00 44 1016.9
20260901090348 78 139 6.0 13.0 0.00 0.00 0.00 44 1016.9
20260901085844 78 161 9.0 13.0 0.00 0.00 0.00 44 1016.9
20260901085339 78 130 5.0 9.0 0.00 0.00 0.00 44 1016.9
20260901084836 78 168 5.0 11.0 0.00 0.00 0.00 44 1016.6
20260901084332 78 157 5.0 14.0 0.00 0.00 0.00 43 1016.8
20260901083827 78 139 5.0 9.0 0.00 0.00 0.00 43 1016.6
20260901083326 78 160 1.0 7.0 0.00 0.00 0.00 43 1016.9
20260901082825 78 158 5.0 13.0 0.00 0.00 0.00 43 1016.8
20260901082321 78 153 4.0 8.0 0.00 0.00 0.00 43 1016.7
20260901081816 78 131 7.0 11.0 0.00 0.00 0.00 43 1016.8
20260901081316 79 144 3.0 13.0 0.00 0.00 0.00 42 1016.6
20260901080811 79 153 4.0 13.0 0.00 0.00 0.00 42 1016.9
20260901080310 79 136 6.0 9.0 0.00 0.00 0.00 42 1016.8
20260901075804 79 148 6.0 11.0 0.00 0.00 0.00 41 1016.6
20260901075259 80 160 3.0 11.0 0.00 0.00 0.00 41 1016.6
20260901074754 80 141 8.0 14.0 0.00 0.00 0.00 41 1016.7
20260901074249 79 172 7.0 10.0 0.00 0.00 0.00 41 1016.7
20260901073745 80 143 6.0 11.0 0.00 0.00 0.00 41 1016.7
20260901073240 80 142 8.0 12.0 0.00 0.00 0.00 41 1016.6
20260901072736 80 156 8.0 12.0 0.00 0.00 0.00 41 1016.9
20260901072230 80 138 9.0 11.0 0.00 0.00 0.00 41 1016.8
20260901071724 80 140 7.0 11.0 0.00 0.00 0.00 41 1016.8
20260901071218 79 159 6.0 12.0 0.00 0.00 0.00 41 1016.9
20260901070712 79 139 4.0 11.0 0.00 0.00 0.00 41 1017.0
20260901070208 80 148 11.0 12.0 0.00 0.00 0.00 41 1016.9
20260901065707 80 131 4.0 9.0 0.00 0.00 0.00 41 1016.9
20260901065202 79 139 2.0 9.0 0.00 0.00 0.00 42 1017.2
20260901064659 78 162 3.0 7.0 0.00 0.00 0.00 43 1017.2
20260901064155 77 138 6.0 7.0 0.00 0.00 0.00 45 1016.9
20260901063652 77 132 3.0 7.0 0.00 0.00 0.00 46 1017.0
20260901063148 77 128 3.0 5.0 0.00 0.00 0.00 46 1016.8
20260901062643 77 114 3.0 5.0 0.00 0.00 0.00 46 1016.9
20260901062139 77 143 5.0 6.0 0.00 0.00 0.00 46 1017.0
20260901061635 77 129 4.0 5.0 0.00 0.00 0.00 46 1017.2
20260901061134 77 112 3.0 5.0 0.00 0.00 0.00 47 1017.0
20260901060629 77 124 4.0 6.0 0.00 0.00 0.00 46 1016.8
20260901060125 76 123 4.0 5.0 0.00 0.00 0.00 47 1016.9
20260901055620 76 127 7.0 7.0 0.00 0.00 0.00 46 1016.9
20260901055117 76 125 4.0 6.0 0.00 0.00 0.00 48 1016.8
20260901054614 76 128 7.0 7.0 0.00 0.00 0.00 47 1017.1
20260901054109 77 121 5.0 7.0 0.00 0.00 0.00 46 1016.9
20260901053605 77 112 4.0 7.0 0.00 0.00 0.00 46 1016.9
20260901053100 77 122 5.0 7.0 0.00 0.00 0.00 46 1017.1
20260901052555 77 122 7.0 7.0 0.00 0.00 0.00 46 1017.1
20260901052050 78 122 5.0 9.0 0.00 0.00 0.00 46 1016.8
20260901051549 77 136 5.0 6.0 0.00 0.00 0.00 46 1017.0
20260901051049 77 117 5.0 5.0 0.00 0.00 0.00 47 1016.8
20260901050544 77 124 3.0 5.0 0.00 0.00 0.00 48 1016.8
20260901050039 77 122 4.0 7.0 0.00 0.00 0.00 48 1016.8
20260901045535 77 125 5.0 7.0 0.00 0.00 0.00 48 1016.9
20260901045035 77 113 3.0 6.0 0.00 0.00 0.00 48 1017.0
20260901044531 77 120 5.0 6.0 0.00 0.00 0.00 48 1016.9
20260901044026 77 121 3.0 5.0 0.00 0.00 0.00 48 1016.9
20260901043522 78 131 5.0 5.0 0.00 0.00 0.00 47 1016.8
20260901043017 78 142 3.0 5.0 0.00 0.00 0.00 47 1016.6
20260901042516 78 133 3.0 5.0 0.00 0.00 0.00 46 1016.8
20260901042012 79 140 3.0 6.0 0.00 0.00 0.00 46 1016.6
20260901041507 78 138 5.0 5.0 0.00 0.00 0.00 47 1016.7
20260901041002 78 118 3.0 5.0 0.00 0.00 0.00 46 1016.6
20260901040456 79 143 4.0 6.0 0.00 0.00 0.00 46 1016.6
20260901035955 79 135 4.0 5.0 0.00 0.00 0.00 46 1016.5
20260901035454 79 140 5.0 5.0 0.00 0.00 0.00 46 1016.5
20260901034953 79 119 3.0 4.0 0.00 0.00 0.00 46 1016.7
20260901034453 79 135 4.0 5.0 0.00 0.00 0.00 46 1016.2
20260901033948 79 121 6.0 7.0 0.00 0.00 0.00 44 1016.2
20260901033447 80 114 2.0 4.0 0.00 0.00 0.00 44 1016.1
20260901032945 80 135 4.0 5.0 0.00 0.00 0.00 44 1016.1
20260901032440 80 127 4.0 4.0 0.00 0.00 0.00 43 1016.1
20260901031935 81 116 3.0 6.0 0.00 0.00 0.00 41 1016.1
20260901031431 81 132 3.0 4.0 0.00 0.00 0.00 41 1016.0
20260901030930 81 173 2.0 4.0 0.00 0.00 0.00 41 1015.8
20260901030426 81 188 1.0 4.0 0.00 0.00 0.00 40 1015.9
20260901025925 82 130 3.0 5.0 0.00 0.00 0.00 40 1016.0
20260901025421 82 146 3.0 6.0 0.00 0.00 0.00 40 1015.6
20260901024919 82 136 3.0 5.0 0.00 0.00 0.00 39 1015.4
20260901024414 82 145 3.0 5.0 0.00 0.00 0.00 39 1015.4
20260901023913 83 174 3.0 5.0 0.00 0.00 0.00 38 1015.2
20260901023408 83 139 5.0 6.0 0.00 0.00 0.00 38 1015.1
20260901022903 83 134 3.0 7.0 0.00 0.00 0.00 38 1015.0
20260901022359 83 135 4.0 6.0 0.00 0.00 0.00 38 1014.8
20260901021853 83 153 4.0 4.0 0.00 0.00 0.00 37 1014.8
20260901021349 84 147 3.0 6.0 0.00 0.00 0.00 36 1014.7
20260901020844 85 130 3.0 6.0 0.00 0.00 0.00 35 1014.5
20260901020339 85 170 5.0 8.0 0.00 0.00 0.00 35 1014.6
20260901015838 85 147 3.0 10.0 0.00 0.00 0.00 34 1014.5
20260901015335 86 189 3.0 9.0 0.00 0.00 0.00 34 1014.3
20260901014834 86 161 3.0 7.0 0.00 0.00 0.00 34 1013.9
20260901014331 86 151 4.0 7.0 0.00 0.00 0.00 34 1014.2
20260901013826 86 150 3.0 6.0 0.00 0.00 0.00 34 1014.2
20260901013321 86 154 6.0 7.0 0.00 0.00 0.00 33 1014.1
20260901012817 87 146 3.0 10.0 0.00 0.00 0.00 32 1014.0
20260901012311 87 142 5.0 7.0 0.00 0.00 0.00 32 1014.0
20260901011808 87 139 3.0 7.0 0.00 0.00 0.00 32 1014.0
20260901011302 88 144 2.0 9.0 0.00 0.00 0.00 31 1013.8
20260901010756 88 153 5.0 10.0 0.00 0.00 0.00 30 1014.1
20260901010250 89 155 6.0 10.0 0.00 0.00 0.00 30 1014.0
20260901005749 89 196 7.0 11.0 0.00 0.00 0.00 30 1013.9
20260901005245 90 158 6.0 12.0 0.00 0.00 0.00 29 1013.8
20260901004744 90 180 6.0 12.0 0.00 0.00 0.00 29 1013.7
20260901004239 90 167 6.0 12.0 0.00 0.00 0.00 29 1013.7
20260901003733 91 196 9.0 12.0 0.00 0.00 0.00 28 1013.9
20260901003233 91 161 10.0 15.0 0.00 0.00 0.00 28 1013.8
20260901002727 91 149 10.0 13.0 0.00 0.00 0.00 28 1013.7
20260901002222 92 189 12.0 13.0 0.00 0.00 0.00 27 1013.8
20260901001717 92 167 4.0 13.0 0.00 0.00 0.00 27 1013.6
20260901001212 92 196 7.0 13.0 0.00 0.00 0.00 27 1013.9
20260901000708 92 180 9.0 12.0 0.00 0.00 0.00 26 1014.0
20260901000203 93 194 11.0 15.0 0.00 0.00 0.00 27 1013.8
20260831235656 93 176 5.0 7.0 0.00 0.00 0.00 26 1013.9
20260831235152 93 180 9.0 14.0 0.00 0.00 0.00 26 1013.9
20260831234651 93 130 8.0 16.0 0.00 0.00 0.00 26 1013.8
20260831234147 93 149 12.0 14.0 0.00 0.00 0.00 25 1014.0
20260831233642 93 178 6.0 13.0 0.00 0.00 0.00 25 1013.6
20260831233137 93 181 5.0 15.0 0.00 0.00 0.00 25 1013.7
20260831232632 94 165 6.0 15.0 0.00 0.00 0.00 25 1013.9
20260831232129 94 181 5.0 11.0 0.00 0.00 0.00 25 1013.8
20260831231624 94 177 4.0 11.0 0.00 0.00 0.00 25 1014.1
20260831231120 94 139 12.0 28.0 0.00 0.00 0.00 25 1013.9
20260831230615 94 163 4.0 11.0 0.00 0.00 0.00 25 1013.7
20260831230110 94 150 6.0 12.0 0.00 0.00 0.00 25 1014.0
20260831225604 94 187 17.0 17.0 0.00 0.00 0.00 25 1013.8
20260831225059 94 151 7.0 8.0 0.00 0.00 0.00 24 1013.9
20260831224554 94 192 12.0 15.0 0.00 0.00 0.00 25 1014.2